Regional Weather Roundup
Issued by NWS Kansas City/Pleasant Hill, MO

Home | Current Version | Previous Version | Graphics & Text | Print | Product List | Glossary Off
Versions: 1 2 3 4 5 6 7 8 9 10 11 12 13 14 15 16 17 18 19 20 21 22 23 24 25 26 27 28 29 30 31 32 33 34 35 36 37 38 39 40 41 42 43 44 45 46 47 48 49 50

000
ASUS43 KEAX 240311
RWREAX

WEATHER ROUNDUP FOR EASTERN KANSAS AND NORTHWEST MISSOURI
NATIONAL WEATHER SERVICE KANSAS CITY/PLEASANT HILL MO
1000 PM CDT THU OCT 23 2014

KSZ040-057-103>105-MOZ028-029-037-043-240400-
...KANSAS CITY METROPOLITAN AREA...

CITY           SKY/WX    TMP DP  RH WIND       PRES   REMARKS
K.C. INTL      CLEAR     54  54 100 S9        30.08R FOG
K.C. DOWNTOWN  CLEAR     60  57  89 SW6       30.09R FOG
LEES SUMMIT    CLEAR     59  57  93 S6        30.10R
OLATHE - IXD   CLEAR     55  55 100 S6        30.10R FOG
OLATHE - OJC   PTCLDY    58  58 100 SW5       30.09R FOG
LAWRENCE       CLEAR     55  54  96 SE5       30.09R FOG

$$

MOZ001>008-011>017-020>025-030>033-038>040-044>046-053-054-240400-
...NORTHERN AND CENTRAL MISSOURI...

CITY           SKY/WX    TMP DP  RH WIND       PRES   REMARKS
ST. JOSEPH     FOG       56  56 100 S5        30.07R VSB 3/4
MOSBY          FOG       52  52 100 CALM      30.09R VSB 1/4
WHITEMAN AFB   CLOUDY    62  58  87 SW7       30.09S
CLINTON        CLOUDY    63  59  88 SW3       30.11S FOG
SEDALIA        CLOUDY    62  58  86 SW8       30.10S
WARSAW         NOT AVBL
MARSHALL       CLOUDY    63  61  94 CALM      30.10S
CHILLICOTHE      N/A     52  51  97 CALM      30.09R
MOBERLY        MOCLDY    59  52  77 SW3       30.09
KIRKSVILLE     FOG       52  52 100 CALM      30.08R VSB 1/4

$$

MOZ041-047>049-056>058-063>065-088>090-097-240400-
...EASTERN AND SOUTHERN MISSOURI...

CITY           SKY/WX    TMP DP  RH WIND       PRES   REMARKS
ST. LOUIS INTL MOCLDY    59  45  59 SW3       30.10S
SPIRIT OF STL  CLOUDY    57  49  74 CALM      30.09S
COLUMBIA       CLEAR     54  51  90 SW6       30.10R
JEFFERSON CITY CLOUDY    60  51  72 S7        30.09F
MEXICO         CLEAR     55  55 100 S6        30.09R
HANNIBAL       CLEAR     54  50  87 S5        30.08S
ROLLA          CLEAR     51  46  83 SW10      30.10R
LEBANON        CLEAR     52  50  93 CALM      30.13S
OSAGE BEACH    PTCLDY    55  50  82 CALM      30.11S
SPRINGFIELD    MOCLDY    53  52  96 CALM      30.13R FOG
BRANSON        CLOUDY    54  50  87 CALM      30.14S
NEVADA         CLOUDY    59  57  94 S6        30.13S
JOPLIN         MOCLDY    55  55 100 CALM      30.14R
WEST PLAINS    CLEAR     49  45  86 CALM      30.14S

$$

IAZ060-094-KSZ022-034>040-054-083-096-NEZ052-066-093-240400-
...KANSAS...SOUTHEAST NEBRASKA AND IOWA...

CITY           SKY/WX    TMP DP  RH WIND       PRES   REMARKS
TOPEKA         CLEAR     61  59  93 S5        30.08R
MANHATTAN      PTCLDY    59  57  93 CALM      30.06R
EMPORIA        CLEAR     59  58  96 S10       30.08F
CHANUTE        CLOUDY    59  57  93 S8        30.11R
WICHITA        PTCLDY    64  58  80 SE8       30.07R
OMAHA          MOCLDY    57  50  77 CALM      30.02S
LINCOLN        MOCLDY    60  50  69 S3        30.03R
FALLS CITY     PTCLDY    61  57  87 S7        30.04S
LAMONI         FOG       55  54  96 S8        30.06R VSB 3/4
DES MOINES     CLEAR     56  54  93 S7        30.05R FOG

$$




USA.gov is the U.S. government's official web portal to all federal, state and local government web resources and services.